EW9733 Weather Reports


time (UTC)temp
C
wind
direction
speed
KPH
gust
KPH
rain 1hr
cm
rain 24hr
cm
rain mn
cm
humidity
%
barometer
mb
20260507074548 12 337 0.0 11.3 0.03 0.18 0.03 90 1005.6
20260507073040 13 348 0.0 4.8 0.00 0.15 0.00 91 1004.6
20260507071539 13 262 0.0 6.4 0.00 0.15 0.00 92 1004.5
20260507070037 13 268 0.0 4.8 0.00 0.15 0.00 92 1004.6
20260507064537 13 264 0.0 1.6 0.00 0.15 0.00 93 1004.6
20260507063038 14 264 0.0 4.8 0.00 0.15 0.00 93 1004.6
20260507061536 14 264 0.0 1.6 0.00 0.15 0.00 93 1004.7
20260507060037 14 223 0.0 3.2 0.00 0.15 0.00 93 1005.1
20260507054530 14 220 0.0 3.2 0.00 0.15 0.00 93 1004.9
20260507053029 14 221 0.0 3.2 0.00 0.15 0.00 93 1005.0
20260507051528 13 242 1.6 4.8 0.00 0.15 0.00 93 1005.0
20260507050029 13 190 0.0 8.0 0.00 0.15 0.00 93 1005.4
20260507044525 13 238 0.0 4.8 0.00 0.15 0.00 93 1005.2
20260507043027 13 215 0.0 6.4 0.00 0.15 0.00 93 1004.9
20260507041522 13 267 0.0 6.4 0.00 0.15 0.00 93 1005.1
20260507040019 13 227 0.0 8.0 0.00 0.15 0.00 93 1005.2
20260507034523 13 175 0.0 8.0 0.00 0.15 0.15 93 1005.6
20260507033018 13 178 3.2 9.7 0.00 0.15 0.15 93 1005.3
20260507031519 13 182 1.6 11.3 0.00 0.15 0.15 93 1005.0
20260507030016 13 186 4.8 11.3 0.00 0.15 0.15 93 1005.0
20260507024519 13 211 1.6 6.4 0.00 0.15 0.15 93 1005.0
20260507023015 13 179 3.2 12.9 0.00 0.15 0.15 93 1004.7
20260507021514 13 196 1.6 9.7 0.00 0.15 0.15 93 1004.9
20260507020018 13 198 1.6 16.1 0.00 0.15 0.15 93 1005.0
20260507014511 13 146 4.8 12.9 0.00 0.15 0.15 93 1005.3
20260507013009 13 188 4.8 14.5 0.00 0.15 0.15 93 1005.4
20260507011512 13 240 1.6 14.5 0.00 0.15 0.15 92 1005.6
20260507010010 13 185 3.2 20.9 0.00 0.15 0.15 92 1005.4
20260507004509 13 219 8.0 12.9 0.03 0.15 0.15 92 1005.5
20260507003006 13 164 3.2 17.7 0.08 0.15 0.15 92 1005.6
20260507001514 13 178 4.8 17.7 0.08 0.15 0.15 92 1005.6
20260507000008 13 156 3.2 32.2 0.08 0.15 0.15 92 1005.5
20260506234502 13 203 3.2 16.1 0.05 0.13 0.13 91 1005.3
20260506233102 13 215 9.7 27.4 0.03 0.08 0.08 91 1005.3
20260506231606 13 186 3.2 14.5 0.05 0.08 0.08 91 1005.6
20260506230112 14 164 1.6 14.5 0.05 0.08 0.08 90 1005.6
20260506224555 14 207 4.8 19.3 0.05 0.08 0.08 90 1005.4
20260506223052 14 191 8.0 24.1 0.03 0.05 0.05 89 1005.8
20260506221604 15 239 6.4 17.7 0.00 0.03 0.03 88 1005.9
20260506220050 15 146 6.4 27.4 0.00 0.03 0.03 88 1006.1
20260506214554 15 204 4.8 27.4 0.00 0.03 0.03 88 1006.0
20260506213048 15 192 6.4 19.3 0.00 0.03 0.03 87 1006.0
20260506211546 15 140 6.4 25.7 0.00 0.03 0.03 87 1006.2
20260506210054 15 217 8.0 22.5 0.03 0.03 0.03 86 1006.3
20260506204547 15 144 4.8 29.0 0.03 0.03 0.03 86 1006.4
20260506203042 15 176 6.4 14.5 0.03 0.03 0.03 85 1006.4
20260506201541 16 197 1.6 22.5 0.03 0.03 0.03 84 1006.5
20260506200040 16 202 4.8 12.9 0.00 0.00 0.00 81 1006.5
20260506194540 16 140 6.4 12.9 0.00 0.00 0.00 79 1006.8
20260506193044 17 229 8.0 25.7 0.00 0.00 0.00 75 1006.7
20260506191539 17 202 11.3 33.8 0.00 0.00 0.00 74 1006.8
20260506190039 17 217 11.3 30.6 0.00 0.00 0.00 73 1006.5
20260506184543 17 221 9.7 29.0 0.00 0.00 0.00 72 1006.8
20260506183036 18 208 11.3 20.9 0.00 0.00 0.00 71 1006.8
20260506181540 18 189 11.3 35.4 0.00 0.00 0.00 71 1006.9
20260506180034 18 197 11.3 30.6 0.00 0.00 0.00 69 1007.5
20260506174633 19 192 8.0 38.6 0.00 0.00 0.00 69 1007.6
20260506173031 20 203 11.3 27.4 0.00 0.00 0.00 67 1007.8
20260506171534 19 296 6.4 37.0 0.00 0.00 0.00 69 1007.4
20260506170030 19 180 9.7 20.9 0.00 0.00 0.00 67 1007.8
20260506164543 20 186 4.8 19.3 0.00 0.00 0.00 68 1007.8
20260506163025 19 192 6.4 33.8 0.00 0.00 0.00 68 1008.0
20260506161524 20 161 8.0 32.2 0.00 0.00 0.00 67 1008.4
20260506160023 20 157 8.0 22.5 0.00 0.00 0.00 67 1008.5
20260506154521 20 186 8.0 33.8 0.00 0.00 0.00 67 1008.7
20260506153021 20 219 3.2 20.9 0.00 0.00 0.00 67 1009.0
20260506151520 20 175 8.0 20.9 0.00 0.00 0.00 67 1009.0
20260506150017 20 207 6.4 25.7 0.00 0.00 0.00 67 1009.0
20260506144523 20 217 8.0 32.2 0.00 0.00 0.00 66 1008.8
20260506143012 20 214 9.7 25.7 0.00 0.00 0.00 68 1008.7
20260506141522 19 204 9.7 17.7 0.00 0.00 0.00 68 1008.7
20260506140005 19 207 8.0 19.3 0.00 0.00 0.00 69 1008.9
20260506134500 18 188 6.4 25.7 0.00 0.00 0.00 71 1009.4
20260506133109 18 174 9.7 25.7 0.00 0.00 0.00 74 1009.6
20260506131614 17 209 6.4 24.1 0.00 0.00 0.00 76 1009.5
20260506130049 16 191 6.4 27.4 0.00 0.00 0.00 78 1009.7
20260506124546 16 216 8.0 30.6 0.00 0.00 0.00 80 1009.4
20260506123044 16 156 8.0 25.7 0.00 0.00 0.00 81 1009.2
20260506121545 15 146 9.7 25.7 0.00 0.00 0.00 82 1009.7
20260506120056 15 200 8.0 24.1 0.00 0.00 0.00 83 1009.8
20260506114537 15 180 4.8 27.4 0.00 0.00 0.00 85 1009.9
20260506113035 15 159 6.4 22.5 0.00 0.00 0.00 85 1009.9
20260506111536 14 219 6.4 16.1 0.00 0.00 0.00 86 1009.9
20260506110034 14 169 8.0 25.7 0.00 0.00 0.00 86 1009.9
20260506104631 14 207 4.8 22.5 0.00 0.00 0.00 86 1010.0
20260506103037 14 203 4.8 12.9 0.00 0.00 0.00 86 1009.9
20260506101521 14 196 6.4 14.5 0.00 0.00 0.00 86 1009.7
20260506100019 14 137 4.8 16.1 0.00 0.00 0.00 86 1009.7
20260506094515 14 176 8.0 24.1 0.00 0.00 0.00 86 1009.7
20260506093019 14 153 6.4 16.1 0.00 0.00 0.00 85 1009.5
20260506091510 14 200 8.0 12.9 0.00 0.00 0.00 85 1009.6
20260506090008 14 203 6.4 22.5 0.00 0.00 0.00 85 1009.6
20260506084509 14 204 3.2 19.3 0.00 0.00 0.00 85 1009.8
20260506083006 14 252 4.8 33.8 0.00 0.00 0.00 84 1009.8
20260506081504 14 205 8.0 25.7 0.00 0.00 0.00 84 1009.7